Track YAOGAN 25C now! 10-day predictions YAOGAN 25C is classified as:
1 40340U 14080C 23159.57083613 -.00000057 00000-0 45214-4 0 9990 2 40340 63.3958 274.6879 0268011 4.8274 355.5242 13.45253728417146